Regional Weather Roundup
Issued by NWS

Home | Current Version | Previous Version | Graphics & Text | Print | Product List | Glossary On
Versions: 1 2 3 4 5 6 7 8 9 10 11 12 13 14 15 16 17 18 19 20 21 22 23 24 25 26 27 28 29 30 31 32 33 34 35 36 37 38 39 40 41 42 43 44 45 46 47 48 49 50
000
ASUS43 KOAX 031302
RWRNE

WEATHER ROUNDUP FOR NEBRASKA
NATIONAL WEATHER SERVICE OMAHA NE
800 AM CDT SUN MAY 03 2015

NOTES: SATELLITE DATA IS BEING USED TO AUGMENT CLOUD COVER ABOVE
       12000 FEET.
       "FAIR" INDICATES FEW OR NO CLOUDS BELOW 12,000 FEET WITH NO
       SIGNIFICANT WEATHER AND/OR OBSTRUCTIONS TO VISIBILITY.

  * THESE STATIONS DO NOT REPORT WEATHER SUCH AS RAIN...SNOW OR FOG.

NEZ001>004-019>022-054>056-031400-
NEBRASKA PANHANDLE

CITY           SKY/WX    TMP DP  RH WIND       PRES   REMARKS
SCOTTSBLUFF    SUNNY     50  42  74 N6        29.86R
ALLIANCE       PTSUNNY   48  42  80 W8        29.82R
CHADRON        MOSUNNY   47  39  74 N5        29.88R
KIMBALL        SUNNY     50  41  71 W8        29.89R
SIDNEY         MOSUNNY   52  42  69 NW8       29.87R
$$

NEZ057>060-069>072-079>082-031400-
SOUTHWEST NEBRASKA

CITY           SKY/WX    TMP DP  RH WIND       PRES   REMARKS
NORTH PLATTE   SUNNY     52  48  86 NW6       29.78R
IMPERIAL       SUNNY     56  44  64 W12       29.81R
LEXINGTON      MOSUNNY   55  49  81 CALM      29.76R
MCCOOK         SUNNY     55  46  71 S9        29.81R
OGALLALA       MOSUNNY   51  45  79 W10       29.81R
$$

NEZ005>010-023>029-035>040-094-031400-
NORTH CENTRAL NEBRASKA

CITY           SKY/WX    TMP DP  RH WIND       PRES   REMARKS
VALENTINE      PTSUNNY   52  42  69 NW9       29.76R
AINSWORTH      MOSUNNY   55  44  66 W8        29.74R
BROKEN BOW     PTSUNNY   65  44  46 VRB5      29.74R
O`NEILL        MOSUNNY   57  55  94 S7        29.71F
ORD            MOSUNNY   54  49  83 CALM      29.71R
$$

NEZ041-046>049-061>064-073>077-083>087-031400-
SOUTH CENTRAL NEBRASKA

CITY           SKY/WX    TMP DP  RH WIND       PRES   REMARKS
GRAND ISLAND   MOSUNNY   59  53  80 SE6       29.74S
AURORA         MOSUNNY   60  55  84 S8        29.74S
HASTINGS       SUNNY     61  51  70 CALM      29.74R
HOLDREGE       SUNNY     65  45  49 W8        29.76R
KEARNEY *      MOSUNNY   59  46  63 SW3       29.75R
$$

NEZ011>018-030>034-042>045-031400-
NORTHEAST NEBRASKA

CITY           SKY/WX    TMP DP  RH WIND       PRES   REMARKS
NORFOLK        PTSUNNY   62  54  74 S16G24    29.71S
ALBION         MOSUNNY   58  53  83 S9        29.72S
BLAIR          MOSUNNY   64  55  74 S17       29.74S
COLUMBUS *     MOSUNNY   61  52  72 S10       29.75S
FREMONT        MOSUNNY   65  55  72 S12       29.75R
TEKAMAH        MOSUNNY   64  58  80 S12       29.73R
WAYNE          MOSUNNY   64  55  72 S18       29.72S
$$

NEZ050>053-065>068-078-088>093-031400-
SOUTHEAST NEBRASKA

CITY           SKY/WX    TMP DP  RH WIND       PRES   REMARKS
LINCOLN        SUNNY     64  55  72 S16       29.75S
OMAHA EPPLEY   PTSUNNY   63  56  78 S16       29.75R
BEATRICE       MOSUNNY   64  56  75 S10       29.77R
FALLS CITY     MOSUNNY   65  56  72 S12G21    29.80S
NEBRASKA CITY  SUNNY     63  53  70 S18       29.78F
PLATTSMOUTH    SUNNY     62  55  76 S16G22    29.76S
$$

NEZ044-045-051>053-067-031400-
OMAHA AREA

CITY           SKY/WX    TMP DP  RH WIND       PRES   REMARKS
OMAHA EPPLEY   PTSUNNY   63  56  78 S16       29.75R
BLAIR          MOSUNNY   64  55  74 S17       29.74S
FREMONT        MOSUNNY   65  55  72 S12       29.75R
MILLARD        MOSUNNY   65  56  74 S10       29.75R
OFFUTT AFB     MOSUNNY   63  56  78 SE13      29.75S
PLATTSMOUTH    SUNNY     62  55  76 S16G22    29.76S
WAHOO          FAIR      62  55  75 S16       29.74R
$$



USA.gov is the U.S. government's official web portal to all federal, state and local government web resources and services.